TRA25X GMTT-EHRD

Flight info

Callsign TRA25X
Flight time 2h 50m
Altitude 34000
Route NOLRO DCT KORIS L27 VJF N10 SVL N857 HIJ Z230 TLD DCT SIE DCT EDIGO DCT DGO L176 LUSEM DCT LULUT DCT ADABI DCT BOKNO UN858 VANAD UN874 BAMES UT191 PODEM DCT ADUTO N873 FERDI Y18 DENUT
Aircraft B738/M-SDE2E3FGHIJ1P2RWXY/LB1

Departure

Time 2026-04-29 19:52
Airport Tangier Ibn Battuta Airport (GMTT)

Arrival

Time 2026-04-29 22:43
Airport Rotterdam The Hague Airport (EHRD)
Time Latitude Longitude Altitude Speed Heading
2026-04-29 19:07 35.72540 -5.91129 47 ft 0 kts 356°
2026-04-29 19:40 35.72533 -5.91129 47 ft 2 kts 356°
2026-04-29 19:40 35.72508 -5.91126 47 ft 4 kts 353°
2026-04-29 19:40 35.72481 -5.91121 46 ft 4 kts 347°
2026-04-29 19:41 35.72455 -5.91112 48 ft 4 kts 335°
2026-04-29 19:41 35.72445 -5.91105 47 ft 1 kts 329°
2026-04-29 19:44 35.72445 -5.91106 47 ft 1 kts 329°
2026-04-29 19:44 35.72449 -5.91123 48 ft 5 kts 281°
2026-04-29 19:45 35.72447 -5.91198 47 ft 12 kts 265°
2026-04-29 19:45 35.72439 -5.91331 43 ft 18 kts 265°
2026-04-29 19:45 35.72429 -5.91491 43 ft 18 kts 266°
2026-04-29 19:45 35.72448 -5.91627 40 ft 16 kts 303°
2026-04-29 19:46 35.72542 -5.91687 40 ft 15 kts 354°
2026-04-29 19:46 35.72647 -5.91698 40 ft 15 kts 355°
2026-04-29 19:46 35.72748 -5.91708 39 ft 14 kts 355°
2026-04-29 19:46 35.72845 -5.91715 39 ft 14 kts 356°
2026-04-29 19:47 35.72930 -5.91693 38 ft 13 kts 55°
2026-04-29 19:47 35.72936 -5.91587 41 ft 13 kts 97°
2026-04-29 19:47 35.72925 -5.91477 42 ft 14 kts 96°
2026-04-29 19:47 35.72913 -5.91341 42 ft 16 kts 96°
2026-04-29 19:48 35.72901 -5.91206 46 ft 16 kts 96°
2026-04-29 19:48 35.72892 -5.91117 47 ft 15 kts 96°
2026-04-29 19:48 35.72876 -5.90951 49 ft 14 kts 97°
2026-04-29 19:48 35.72864 -5.90830 51 ft 15 kts 97°
2026-04-29 19:49 35.72851 -5.90687 52 ft 17 kts 97°
2026-04-29 19:49 35.72837 -5.90543 54 ft 17 kts 96°
2026-04-29 19:49 35.72824 -5.90404 56 ft 16 kts 96°
2026-04-29 19:49 35.72820 -5.90271 57 ft 15 kts 76°
2026-04-29 19:50 35.72895 -5.90192 54 ft 15 kts
2026-04-29 19:50 35.72980 -5.90244 53 ft 14 kts 304°
2026-04-29 19:50 35.72999 -5.90314 55 ft 1 kts 277°
2026-04-29 19:50 35.73000 -5.90324 49 ft 3 kts 277°
2026-04-29 19:51 35.73005 -5.90378 54 ft 0 kts 276°
2026-04-29 19:51 35.73006 -5.90393 54 ft 0 kts 276°
2026-04-29 19:51 35.73012 -5.90462 53 ft 34 kts 276°
2026-04-29 19:52 35.73068 -5.91056 48 ft 104 kts 276°
2026-04-29 19:52 35.73173 -5.92197 35 ft 162 kts 276°
2026-04-29 19:52 35.73310 -5.93700 458 ft 178 kts 277°
2026-04-29 19:52 35.73462 -5.95164 1419 ft 167 kts 279°
2026-04-29 19:53 35.73641 -5.96579 2105 ft 174 kts 278°
2026-04-29 19:53 35.73832 -5.98133 2264 ft 192 kts 277°
2026-04-29 19:53 35.74034 -5.99825 2398 ft 208 kts 278°
2026-04-29 19:53 35.74051 -6.01659 2505 ft 221 kts 257°
2026-04-29 19:54 35.72364 -6.04803 3434 ft 227 kts 215°
2026-04-29 19:54 35.70976 -6.05632 4407 ft 221 kts 196°
2026-04-29 19:54 35.69973 -6.05817 4945 ft 222 kts 182°
2026-04-29 19:55 35.68442 -6.05489 5651 ft 229 kts 161°
2026-04-29 19:55 35.67076 -6.04430 6327 ft 239 kts 140°
2026-04-29 19:55 35.66099 -6.02722 6938 ft 251 kts 116°
2026-04-29 19:55 35.65760 -6.00583 7548 ft 263 kts 89°
2026-04-29 19:56 35.66176 -5.98378 8192 ft 268 kts 70°
2026-04-29 19:56 35.66878 -5.96228 8844 ft 273 kts 68°
2026-04-29 19:56 35.67613 -5.94066 9506 ft 276 kts 68°
2026-04-29 19:56 35.68355 -5.91875 10138 ft 279 kts 68°
2026-04-29 19:57 35.69098 -5.89657 10752 ft 282 kts 68°
2026-04-29 19:57 35.69839 -5.87420 11393 ft 283 kts 68°
2026-04-29 19:57 35.70581 -5.85160 12000 ft 287 kts 68°
2026-04-29 19:57 35.71330 -5.82871 12614 ft 289 kts 69°
2026-04-29 19:58 35.72083 -5.80570 13247 ft 291 kts 69°
2026-04-29 19:58 35.72856 -5.78208 13618 ft 306 kts 68°
2026-04-29 19:58 35.73679 -5.75700 13783 ft 326 kts 68°
2026-04-29 19:58 35.74555 -5.73031 13940 ft 347 kts 68°
2026-04-29 19:59 35.75483 -5.70198 14078 ft 366 kts 68°
2026-04-29 19:59 35.76372 -5.67178 14206 ft 385 kts 75°
2026-04-29 19:59 35.76927 -5.63903 14442 ft 397 kts 83°
2026-04-29 19:59 35.77291 -5.60491 14869 ft 404 kts 84°
2026-04-29 20:00 35.77659 -5.57052 15395 ft 407 kts 83°
2026-04-29 20:00 35.78043 -5.53589 15966 ft 409 kts 83°
2026-04-29 20:00 35.78437 -5.50113 16492 ft 413 kts 83°
2026-04-29 20:00 35.78857 -5.46594 17011 ft 417 kts 82°
2026-04-29 20:01 35.79337 -5.43058 17549 ft 420 kts 81°
2026-04-29 20:01 35.79835 -5.39547 18069 ft 423 kts 81°
2026-04-29 20:01 35.80351 -5.35911 18546 ft 427 kts 81°
2026-04-29 20:01 35.80850 -5.32349 18957 ft 430 kts 82°
2026-04-29 20:02 35.81354 -5.28697 19379 ft 434 kts 82°
2026-04-29 20:02 35.81858 -5.25014 19820 ft 438 kts 82°
2026-04-29 20:02 35.82364 -5.21298 20283 ft 441 kts 82°
2026-04-29 20:02 35.82743 -5.18782 20568 ft 444 kts 77°
2026-04-29 20:03 35.84484 -5.14228 21083 ft 449 kts 51°
2026-04-29 20:03 35.86688 -5.11514 21535 ft 449 kts 34°
2026-04-29 20:03 35.89315 -5.09434 21965 ft 450 kts 29°
2026-04-29 20:03 35.91992 -5.07405 22331 ft 453 kts 29°
2026-04-29 20:04 35.94691 -5.05348 22698 ft 457 kts 30°
2026-04-29 20:04 35.97395 -5.03256 23061 ft 460 kts 30°
2026-04-29 20:04 36.00106 -5.01131 23470 ft 463 kts 30°
2026-04-29 20:04 36.02823 -4.98982 23798 ft 466 kts 30°
2026-04-29 20:05 36.05553 -4.96815 24116 ft 468 kts 30°
2026-04-29 20:05 36.08846 -4.94196 24511 ft 470 kts 30°
2026-04-29 20:05 36.11571 -4.92029 24837 ft 472 kts 30°
2026-04-29 20:05 36.14338 -4.89829 25139 ft 474 kts 30°
2026-04-29 20:06 36.17134 -4.87617 25432 ft 477 kts 30°
2026-04-29 20:06 36.19952 -4.85414 25680 ft 481 kts 29°
2026-04-29 20:06 36.22796 -4.83200 25983 ft 483 kts 29°
2026-04-29 20:06 36.25645 -4.80982 26300 ft 484 kts 29°
2026-04-29 20:07 36.28495 -4.78760 26593 ft 486 kts 29°
2026-04-29 20:07 36.31371 -4.76511 26876 ft 488 kts 29°
2026-04-29 20:07 36.34250 -4.74257 27140 ft 491 kts 29°
2026-04-29 20:07 36.37141 -4.71990 27404 ft 493 kts 29°
2026-04-29 20:08 36.40044 -4.69709 27677 ft 495 kts 29°
2026-04-29 20:08 36.41972 -4.68194 27875 ft 496 kts 29°
2026-04-29 20:08 36.45851 -4.65143 28168 ft 500 kts 29°
2026-04-29 20:08 36.48789 -4.62829 28421 ft 502 kts 29°
2026-04-29 20:09 36.51739 -4.60503 28678 ft 503 kts 29°
2026-04-29 20:09 36.54697 -4.58170 28932 ft 505 kts 29°
2026-04-29 20:09 36.57662 -4.55827 29242 ft 504 kts 29°
2026-04-29 20:09 36.60615 -4.53492 29701 ft 501 kts 29°
2026-04-29 20:10 36.63551 -4.51168 30127 ft 499 kts 28°
2026-04-29 20:10 36.66477 -4.48851 30413 ft 499 kts 29°
2026-04-29 20:10 36.69412 -4.46525 30645 ft 500 kts 28°
2026-04-29 20:10 36.72339 -4.44204 30909 ft 500 kts 29°
2026-04-29 20:11 36.75269 -4.41877 31198 ft 498 kts 29°
2026-04-29 20:11 36.78188 -4.39557 31524 ft 497 kts 29°
2026-04-29 20:11 36.81110 -4.37253 31821 ft 496 kts 27°
2026-04-29 20:11 36.84145 -4.35263 32074 ft 492 kts 20°
2026-04-29 20:12 36.87269 -4.33530 32367 ft 489 kts 19°
2026-04-29 20:12 36.90389 -4.31886 32615 ft 488 kts 18°
2026-04-29 20:12 36.93529 -4.30248 32836 ft 489 kts 18°
2026-04-29 20:12 36.96665 -4.28597 33049 ft 490 kts 18°
2026-04-29 20:13 36.99799 -4.26922 33308 ft 489 kts 19°
2026-04-29 20:13 37.01863 -4.25806 33514 ft 488 kts 19°
2026-04-29 20:13 37.06018 -4.23536 33937 ft 485 kts 19°
2026-04-29 20:13 37.09121 -4.21830 33977 ft 489 kts 19°
2026-04-29 20:14 37.15351 -4.18396 33982 ft 488 kts 19°
2026-04-29 20:14 37.21546 -4.14973 33992 ft 485 kts 19°
2026-04-29 20:15 37.26669 -4.12141 33968 ft 483 kts 19°
2026-04-29 20:15 37.33797 -4.08197 33984 ft 480 kts 19°
2026-04-29 20:16 37.39900 -4.04814 33984 ft 480 kts 19°
2026-04-29 20:16 37.45040 -4.01963 33987 ft 485 kts 19°
2026-04-29 20:17 37.51226 -3.98525 33985 ft 492 kts 19°
2026-04-29 20:17 37.57495 -3.95031 33986 ft 494 kts 19°
2026-04-29 20:18 37.63785 -3.91516 33972 ft 495 kts 19°
2026-04-29 20:18 37.70091 -3.87988 33981 ft 496 kts 19°
2026-04-29 20:19 37.76393 -3.84455 33973 ft 495 kts 19°
2026-04-29 20:19 37.82668 -3.80931 33971 ft 493 kts 19°
2026-04-29 20:20 37.88925 -3.77411 33962 ft 491 kts 19°
2026-04-29 20:20 37.95161 -3.73897 33958 ft 490 kts 19°
2026-04-29 20:21 38.01370 -3.70391 33962 ft 488 kts 19°
2026-04-29 20:21 38.07576 -3.66880 33967 ft 488 kts 19°
2026-04-29 20:22 38.13799 -3.63454 33988 ft 485 kts 13°
2026-04-29 20:22 38.20303 -3.61831 33979 ft 473 kts 358°
2026-04-29 20:23 38.26887 -3.61280 33979 ft 475 kts 357°
2026-04-29 20:23 38.33505 -3.60718 33980 ft 478 kts 358°
2026-04-29 20:24 38.40162 -3.60093 33966 ft 481 kts 358°
2026-04-29 20:24 38.46854 -3.59438 33960 ft 483 kts 358°
2026-04-29 20:25 38.53559 -3.58777 33971 ft 483 kts 358°
2026-04-29 20:25 38.60263 -3.58118 33982 ft 483 kts 358°
2026-04-29 20:26 38.66973 -3.57460 33970 ft 483 kts 358°
2026-04-29 20:26 38.73672 -3.56801 33959 ft 483 kts 358°
2026-04-29 20:27 38.79230 -3.56253 33962 ft 482 kts 358°
2026-04-29 20:27 38.87001 -3.55486 33967 ft 482 kts 358°
2026-04-29 20:28 38.93692 -3.54825 33960 ft 482 kts 358°
2026-04-29 20:28 39.00380 -3.54163 33949 ft 482 kts 358°
2026-04-29 20:29 39.07056 -3.53503 33964 ft 481 kts 358°
2026-04-29 20:29 39.13741 -3.52844 33952 ft 482 kts 358°
2026-04-29 20:30 39.20437 -3.52183 33951 ft 483 kts 358°
2026-04-29 20:30 39.27146 -3.51518 33945 ft 484 kts 358°
2026-04-29 20:31 39.33874 -3.50849 33952 ft 486 kts 358°
2026-04-29 20:31 39.40625 -3.50178 33949 ft 488 kts 358°
2026-04-29 20:32 39.47401 -3.49501 33952 ft 489 kts 358°
2026-04-29 20:32 39.54204 -3.48821 33977 ft 491 kts 358°
2026-04-29 20:33 39.61033 -3.48135 33955 ft 493 kts 358°
2026-04-29 20:33 39.67841 -3.47444 33950 ft 495 kts 358°
2026-04-29 20:34 39.74714 -3.46745 33944 ft 496 kts 358°
2026-04-29 20:34 39.81577 -3.46517 33939 ft 489 kts 349°
2026-04-29 20:35 39.88350 -3.47251 33932 ft 488 kts 347°
2026-04-29 20:35 39.95120 -3.48069 33928 ft 489 kts 347°
2026-04-29 20:36 40.01908 -3.48813 33933 ft 491 kts 348°
2026-04-29 20:36 40.08725 -3.49511 33954 ft 492 kts 349°
2026-04-29 20:37 40.15544 -3.50198 33946 ft 493 kts 349°
2026-04-29 20:37 40.22372 -3.50890 33971 ft 493 kts 349°
2026-04-29 20:38 40.29223 -3.51590 33966 ft 494 kts 349°
2026-04-29 20:38 40.36096 -3.52294 33971 ft 495 kts 349°
2026-04-29 20:39 40.42962 -3.52998 33995 ft 496 kts 350°
2026-04-29 20:39 40.49856 -3.53708 33976 ft 497 kts 350°
2026-04-29 20:40 40.56758 -3.54418 33970 ft 498 kts 350°
2026-04-29 20:40 40.63665 -3.55132 33960 ft 498 kts 350°
2026-04-29 20:41 40.70582 -3.55847 33952 ft 498 kts 350°
2026-04-29 20:41 40.77499 -3.56564 33952 ft 498 kts 350°
2026-04-29 20:42 40.84411 -3.57282 33943 ft 498 kts 350°
2026-04-29 20:42 40.91332 -3.58003 33937 ft 499 kts 351°
2026-04-29 20:43 40.98247 -3.58724 33949 ft 499 kts 351°
2026-04-29 20:43 41.05164 -3.59447 33947 ft 498 kts 351°
2026-04-29 20:44 41.12078 -3.60172 33958 ft 499 kts 351°
2026-04-29 20:44 41.19018 -3.60729 33942 ft 501 kts 354°
2026-04-29 20:45 41.25991 -3.60854 33944 ft 501 kts 355°
2026-04-29 20:45 41.32922 -3.60956 33946 ft 501 kts 355°
2026-04-29 20:46 41.39886 -3.61123 33942 ft 500 kts 355°
2026-04-29 20:46 41.46846 -3.61309 33942 ft 500 kts 355°
2026-04-29 20:47 41.53809 -3.61452 33957 ft 501 kts 357°
2026-04-29 20:47 41.60774 -3.61440 33949 ft 501 kts 357°
2026-04-29 20:48 41.67739 -3.61407 33944 ft 500 kts 357°
2026-04-29 20:48 41.74697 -3.61397 33953 ft 500 kts 357°
2026-04-29 20:49 41.81654 -3.61399 33944 ft 500 kts 357°
2026-04-29 20:49 41.88609 -3.61400 33944 ft 499 kts 357°
2026-04-29 20:50 41.95548 -3.61400 33966 ft 498 kts 358°
2026-04-29 20:50 42.02472 -3.61400 33947 ft 497 kts 358°
2026-04-29 20:51 42.09367 -3.61716 33950 ft 494 kts 354°
2026-04-29 20:51 42.16216 -3.62241 33952 ft 492 kts 354°
2026-04-29 20:52 42.23032 -3.62706 33983 ft 491 kts 355°
2026-04-29 20:52 42.29861 -3.63129 33992 ft 489 kts 355°
2026-04-29 20:53 42.36652 -3.63590 33992 ft 487 kts 353°
2026-04-29 20:53 42.43359 -3.64812 33998 ft 485 kts 348°
2026-04-29 20:54 42.53332 -3.67005 33979 ft 484 kts 349°
2026-04-29 20:55 42.59947 -3.68346 33979 ft 484 kts 349°
2026-04-29 20:55 42.66604 -3.69677 33950 ft 483 kts 349°
2026-04-29 20:56 42.73261 -3.70930 33937 ft 484 kts 351°
2026-04-29 20:56 42.79939 -3.72043 33932 ft 484 kts 351°
2026-04-29 20:57 42.86622 -3.73153 33932 ft 484 kts 351°
2026-04-29 20:57 42.93311 -3.74287 33931 ft 484 kts 351°
2026-04-29 20:58 42.99994 -3.75434 33918 ft 485 kts 351°
2026-04-29 20:58 43.06683 -3.76587 33920 ft 486 kts 351°
2026-04-29 20:59 43.13404 -3.77748 33899 ft 487 kts 351°
2026-04-29 20:59 43.20136 -3.78911 33890 ft 488 kts 351°
2026-04-29 21:00 43.26878 -3.80079 33892 ft 489 kts 351°
2026-04-29 21:00 43.33641 -3.81254 33884 ft 490 kts 351°
2026-04-29 21:01 43.40370 -3.82425 33907 ft 491 kts 352°
2026-04-29 21:01 43.47180 -3.83612 33885 ft 489 kts 352°
2026-04-29 21:02 43.53872 -3.84782 33877 ft 487 kts 352°
2026-04-29 21:02 43.60574 -3.85956 33851 ft 484 kts 352°
2026-04-29 21:03 43.67223 -3.87124 33853 ft 481 kts 352°
2026-04-29 21:03 43.73843 -3.88289 33856 ft 478 kts 352°
2026-04-29 21:04 43.80434 -3.89452 33848 ft 478 kts 352°
2026-04-29 21:04 43.87085 -3.90628 33869 ft 486 kts 352°
2026-04-29 21:05 43.93818 -3.91821 33857 ft 488 kts 352°
2026-04-29 21:05 43.99474 -3.92825 33847 ft 490 kts 352°
2026-04-29 21:06 44.06200 -3.94022 33859 ft 491 kts 352°
2026-04-29 21:06 44.12976 -3.95230 33858 ft 491 kts 352°
2026-04-29 21:07 44.19761 -3.96443 33861 ft 492 kts 352°
2026-04-29 21:07 44.26549 -3.97659 33859 ft 492 kts 352°
2026-04-29 21:07 44.29960 -3.97972 33841 ft 491 kts
2026-04-29 21:08 44.33311 -3.97193 33871 ft 488 kts 18°
2026-04-29 21:08 44.36456 -3.95461 33863 ft 485 kts 31°
2026-04-29 21:08 44.39262 -3.92902 33882 ft 481 kts 38°
2026-04-29 21:09 44.44699 -3.87448 33874 ft 481 kts 38°
2026-04-29 21:09 44.50157 -3.82006 33860 ft 481 kts 38°
2026-04-29 21:10 44.55632 -3.76611 33862 ft 481 kts 38°
2026-04-29 21:10 44.61123 -3.71221 33869 ft 482 kts 38°
2026-04-29 21:11 44.66624 -3.65811 33877 ft 483 kts 38°
2026-04-29 21:11 44.72132 -3.60380 33877 ft 484 kts 38°
2026-04-29 21:12 44.77646 -3.54926 33877 ft 485 kts 38°
2026-04-29 21:12 44.83170 -3.49450 33883 ft 486 kts 38°
2026-04-29 21:13 44.88695 -3.43960 33879 ft 486 kts 38°
2026-04-29 21:13 44.94219 -3.38456 33880 ft 486 kts 38°
2026-04-29 21:14 44.99740 -3.32944 33890 ft 486 kts 38°
2026-04-29 21:14 45.05270 -3.27408 33887 ft 487 kts 38°
2026-04-29 21:15 45.10752 -3.21908 33888 ft 487 kts 38°
2026-04-29 21:15 45.16309 -3.16319 33889 ft 487 kts 38°
2026-04-29 21:16 45.21790 -3.10793 33899 ft 486 kts 38°
2026-04-29 21:16 45.27291 -3.05234 33893 ft 485 kts 38°
2026-04-29 21:17 45.32784 -2.99668 33898 ft 485 kts 38°
2026-04-29 21:17 45.38274 -2.94092 33905 ft 484 kts 38°
2026-04-29 21:18 45.43749 -2.88519 33900 ft 484 kts 38°
2026-04-29 21:18 45.49219 -2.82936 33905 ft 484 kts 38°
2026-04-29 21:19 45.54684 -2.77345 33908 ft 483 kts 38°
2026-04-29 21:19 45.60142 -2.71747 33896 ft 483 kts 37°
2026-04-29 21:20 45.65587 -2.66149 33910 ft 482 kts 37°
2026-04-29 21:20 45.71025 -2.60545 33918 ft 482 kts 37°
2026-04-29 21:21 45.76466 -2.54923 33912 ft 482 kts 38°
2026-04-29 21:21 45.81896 -2.49299 33917 ft 482 kts 38°
2026-04-29 21:22 45.87330 -2.43657 33926 ft 482 kts 38°
2026-04-29 21:22 45.92753 -2.38012 33927 ft 482 kts 38°
2026-04-29 21:23 45.98174 -2.32355 33930 ft 480 kts 38°
2026-04-29 21:23 46.03571 -2.26711 33923 ft 478 kts 38°
2026-04-29 21:24 46.08967 -2.21246 33934 ft 477 kts 35°
2026-04-29 21:24 46.14517 -2.16075 33933 ft 475 kts 34°
2026-04-29 21:25 46.20067 -2.10921 33936 ft 473 kts 35°
2026-04-29 21:25 46.25548 -2.05753 33941 ft 471 kts 35°
2026-04-29 21:26 46.31034 -2.00530 33938 ft 470 kts 35°
2026-04-29 21:26 46.36482 -1.95326 33939 ft 469 kts 35°
2026-04-29 21:27 46.41931 -1.90110 33948 ft 469 kts 35°
2026-04-29 21:27 46.47368 -1.84895 33949 ft 470 kts 35°
2026-04-29 21:28 46.52832 -1.79643 33952 ft 471 kts 35°
2026-04-29 21:28 46.58293 -1.74380 33957 ft 472 kts 35°
2026-04-29 21:29 46.63775 -1.69084 33961 ft 473 kts 35°
2026-04-29 21:29 46.69253 -1.63779 33965 ft 473 kts 36°
2026-04-29 21:30 46.74733 -1.58457 33958 ft 473 kts 35°
2026-04-29 21:30 46.80226 -1.53110 34077 ft 476 kts 35°
2026-04-29 21:30 46.82977 -1.50427 34356 ft 474 kts 35°
2026-04-29 21:31 46.85706 -1.47763 34687 ft 471 kts 35°
2026-04-29 21:31 46.88430 -1.45100 34949 ft 469 kts 35°
2026-04-29 21:31 46.91145 -1.42442 35118 ft 470 kts 35°
2026-04-29 21:31 46.93870 -1.39772 35254 ft 472 kts 35°
2026-04-29 21:32 46.96571 -1.37044 35403 ft 472 kts 39°
2026-04-29 21:32 46.99007 -1.33850 35594 ft 469 kts 49°
2026-04-29 21:32 47.01192 -1.30304 35858 ft 467 kts 50°
2026-04-29 21:32 47.03335 -1.26723 35970 ft 469 kts 50°
2026-04-29 21:33 47.05482 -1.23115 35954 ft 471 kts 50°
2026-04-29 21:33 47.09780 -1.15956 35974 ft 469 kts 50°
2026-04-29 21:34 47.14148 -1.08757 35963 ft 468 kts 50°
2026-04-29 21:34 47.18443 -1.01689 35977 ft 466 kts 50°
2026-04-29 21:35 47.22779 -0.94532 35982 ft 465 kts 50°
2026-04-29 21:35 47.27050 -0.87460 35978 ft 465 kts 50°
2026-04-29 21:36 47.31349 -0.80321 35972 ft 466 kts 50°
2026-04-29 21:36 47.35648 -0.73164 35980 ft 466 kts 50°
2026-04-29 21:37 47.39947 -0.65988 35993 ft 468 kts 50°
2026-04-29 21:37 47.44325 -0.58854 35986 ft 470 kts 44°
2026-04-29 21:38 47.49483 -0.52913 35993 ft 471 kts 37°
2026-04-29 21:38 47.54798 -0.47203 35996 ft 472 kts 37°
2026-04-29 21:39 47.60093 -0.41444 35995 ft 473 kts 37°
2026-04-29 21:39 47.65373 -0.35615 35994 ft 473 kts 37°
2026-04-29 21:40 47.70642 -0.29755 35992 ft 473 kts 38°
2026-04-29 21:40 47.75889 -0.23903 35997 ft 472 kts 38°
2026-04-29 21:41 47.81133 -0.18041 35999 ft 471 kts 38°
2026-04-29 21:41 47.86360 -0.12187 36006 ft 470 kts 38°
2026-04-29 21:42 47.91577 -0.06327 36013 ft 469 kts 38°
2026-04-29 21:42 47.95898 -0.01464 36016 ft 468 kts 38°
2026-04-29 21:43 48.01963 0.05382 36016 ft 467 kts 37°
2026-04-29 21:43 48.07138 0.11240 36025 ft 466 kts 37°
2026-04-29 21:44 48.12303 0.17100 36030 ft 466 kts 37°
2026-04-29 21:44 48.17462 0.22969 36032 ft 466 kts 37°
2026-04-29 21:45 48.22628 0.28861 36044 ft 467 kts 37°
2026-04-29 21:45 48.27789 0.34764 36052 ft 467 kts 38°
2026-04-29 21:46 48.32959 0.40692 36064 ft 468 kts 38°
2026-04-29 21:46 48.38135 0.46644 36063 ft 469 kts 37°
2026-04-29 21:47 48.43322 0.52621 36087 ft 469 kts 37°
2026-04-29 21:47 48.48501 0.58607 36095 ft 469 kts 37°
2026-04-29 21:48 48.53676 0.64603 36096 ft 469 kts 37°
2026-04-29 21:48 48.58838 0.70602 36103 ft 468 kts 37°
2026-04-29 21:49 48.63994 0.76608 36102 ft 467 kts 37°
2026-04-29 21:49 48.69097 0.82569 36100 ft 466 kts 37°
2026-04-29 21:50 48.74246 0.88599 36105 ft 464 kts 37°
2026-04-29 21:50 48.79322 0.94474 36110 ft 461 kts 36°
2026-04-29 21:51 48.84407 1.00311 36123 ft 457 kts 36°
2026-04-29 21:51 48.91167 1.08115 36128 ft 454 kts 36°
2026-04-29 21:52 48.96167 1.13915 36128 ft 452 kts 36°
2026-04-29 21:52 49.01174 1.19736 36127 ft 451 kts 36°
2026-04-29 21:53 49.05989 1.25840 36132 ft 452 kts 42°
2026-04-29 21:53 49.10497 1.32485 36128 ft 453 kts 43°
2026-04-29 21:54 49.15019 1.39165 36133 ft 452 kts 41°
2026-04-29 21:54 49.19601 1.45836 36133 ft 452 kts 41°
2026-04-29 21:55 49.24155 1.52459 36153 ft 450 kts 41°
2026-04-29 21:55 49.28648 1.59008 36159 ft 449 kts 41°
2026-04-29 21:56 49.33165 1.65590 36159 ft 447 kts 41°
2026-04-29 21:56 49.37657 1.72151 36154 ft 445 kts 42°
2026-04-29 21:57 49.42116 1.78687 36162 ft 442 kts 42°
2026-04-29 21:57 49.46557 1.85212 36169 ft 441 kts 42°
2026-04-29 21:58 49.50979 1.91726 36182 ft 439 kts 42°
2026-04-29 21:58 49.55378 1.98219 36192 ft 438 kts 43°
2026-04-29 21:59 49.59777 2.04729 36194 ft 438 kts 43°
2026-04-29 21:59 49.64164 2.11238 36192 ft 438 kts 43°
2026-04-29 22:00 49.68557 2.17773 36187 ft 439 kts 43°
2026-04-29 22:00 49.72949 2.24326 36195 ft 440 kts 44°
2026-04-29 22:01 49.77354 2.30914 36202 ft 440 kts 44°
2026-04-29 22:01 49.81748 2.37504 36203 ft 440 kts 45°
2026-04-29 22:02 49.86145 2.44117 36206 ft 440 kts 45°
2026-04-29 22:02 49.90520 2.50714 36203 ft 439 kts 45°
2026-04-29 22:03 49.94894 2.57326 36207 ft 438 kts 45°
2026-04-29 22:03 49.99208 2.63880 36207 ft 436 kts 45°
2026-04-29 22:04 50.03580 2.70556 35651 ft 442 kts 45°
2026-04-29 22:04 50.05767 2.73903 35082 ft 440 kts 45°
2026-04-29 22:04 50.07956 2.77258 34467 ft 441 kts 45°
2026-04-29 22:05 50.10138 2.80605 33786 ft 441 kts 45°
2026-04-29 22:05 50.12295 2.83918 33128 ft 441 kts 46°
2026-04-29 22:05 50.16607 2.90551 32197 ft 431 kts 46°
2026-04-29 22:06 50.18723 2.93813 31773 ft 425 kts 47°
2026-04-29 22:06 50.20815 2.97042 31314 ft 421 kts 47°
2026-04-29 22:06 50.22883 3.00239 30869 ft 417 kts 47°
2026-04-29 22:06 50.24932 3.03413 30437 ft 413 kts 47°
2026-04-29 22:07 50.26966 3.06565 29947 ft 409 kts 47°
2026-04-29 22:07 50.28971 3.09677 29501 ft 403 kts 48°
2026-04-29 22:07 50.30947 3.12749 29053 ft 398 kts 48°
2026-04-29 22:07 50.32900 3.15788 28608 ft 394 kts 48°
2026-04-29 22:08 50.34831 3.18796 28162 ft 389 kts 48°
2026-04-29 22:08 50.36738 3.21771 27722 ft 385 kts 48°
2026-04-29 22:08 50.38629 3.24721 27289 ft 382 kts 47°
2026-04-29 22:08 50.40640 3.27427 26852 ft 381 kts 39°
2026-04-29 22:09 50.42885 3.29567 26580 ft 377 kts 30°
2026-04-29 22:09 50.45239 3.31364 26151 ft 375 kts 30°
2026-04-29 22:09 50.47578 3.33142 25740 ft 372 kts 30°
2026-04-29 22:09 50.49886 3.34928 25334 ft 369 kts 30°
2026-04-29 22:10 50.52187 3.36705 24911 ft 368 kts 29°
2026-04-29 22:10 50.54515 3.38357 24485 ft 367 kts 27°
2026-04-29 22:10 50.56849 3.39945 24071 ft 365 kts 27°
2026-04-29 22:10 50.59186 3.41521 23606 ft 365 kts 27°
2026-04-29 22:11 50.61512 3.43096 23133 ft 363 kts 27°
2026-04-29 22:11 50.63817 3.44665 22727 ft 360 kts 27°
2026-04-29 22:11 50.66105 3.46231 22300 ft 357 kts 27°
2026-04-29 22:11 50.68369 3.47788 21907 ft 354 kts 27°
2026-04-29 22:12 50.70611 3.49334 21488 ft 352 kts 27°
2026-04-29 22:12 50.72850 3.50882 21101 ft 349 kts 27°
2026-04-29 22:12 50.75071 3.52418 20703 ft 347 kts 27°
2026-04-29 22:12 50.77276 3.53946 20314 ft 346 kts 27°
2026-04-29 22:13 50.79474 3.55471 19921 ft 344 kts 27°
2026-04-29 22:13 50.81652 3.56983 19539 ft 342 kts 27°
2026-04-29 22:13 50.83829 3.58496 19138 ft 341 kts 27°
2026-04-29 22:13 50.85991 3.59999 18762 ft 339 kts 27°
2026-04-29 22:14 50.88155 3.61504 18344 ft 338 kts 27°
2026-04-29 22:14 50.90325 3.62927 17911 ft 339 kts 21°
2026-04-29 22:14 50.92618 3.63796 17464 ft 342 kts 11°
2026-04-29 22:14 50.95000 3.64061 17015 ft 343 kts
2026-04-29 22:15 50.97372 3.64191 16637 ft 342 kts
2026-04-29 22:15 50.99762 3.64308 16229 ft 340 kts
2026-04-29 22:15 51.02120 3.64431 15851 ft 338 kts
2026-04-29 22:15 51.04464 3.64565 15458 ft 337 kts
2026-04-29 22:16 51.06803 3.64708 15091 ft 335 kts
2026-04-29 22:16 51.09120 3.64855 14713 ft 334 kts
2026-04-29 22:16 51.11441 3.65004 14339 ft 332 kts
2026-04-29 22:16 51.13753 3.65155 13941 ft 331 kts
2026-04-29 22:17 51.16048 3.65305 13521 ft 330 kts
2026-04-29 22:17 51.18336 3.65454 13128 ft 328 kts
2026-04-29 22:17 51.20611 3.65602 12747 ft 326 kts
2026-04-29 22:17 51.22836 3.66005 12371 ft 318 kts 19°
2026-04-29 22:18 51.24859 3.67257 12120 ft 307 kts 32°
2026-04-29 22:18 51.26619 3.69104 11794 ft 301 kts 39°
2026-04-29 22:18 51.28302 3.71055 11458 ft 299 kts 40°
2026-04-29 22:18 51.29978 3.73014 11115 ft 297 kts 40°
2026-04-29 22:19 51.31645 3.74954 10896 ft 292 kts 40°
2026-04-29 22:19 51.33267 3.76832 10769 ft 288 kts 39°
2026-04-29 22:19 51.34889 3.78703 10650 ft 285 kts 39°
2026-04-29 22:19 51.36494 3.80551 10513 ft 280 kts 39°
2026-04-29 22:20 51.38055 3.82344 10405 ft 272 kts 39°
2026-04-29 22:20 51.39564 3.84079 10265 ft 265 kts 39°
2026-04-29 22:20 51.41064 3.85805 9972 ft 264 kts 39°
2026-04-29 22:20 51.42550 3.87521 9692 ft 263 kts 40°
2026-04-29 22:21 51.44032 3.89233 9406 ft 262 kts 40°
2026-04-29 22:21 51.45509 3.90943 9127 ft 260 kts 40°
2026-04-29 22:21 51.46971 3.92636 8861 ft 259 kts 40°
2026-04-29 22:21 51.48431 3.94329 8581 ft 258 kts 40°
2026-04-29 22:22 51.49879 3.96009 8318 ft 257 kts 40°
2026-04-29 22:22 51.51318 3.97677 8046 ft 256 kts 40°
2026-04-29 22:22 51.52756 3.99349 7777 ft 254 kts 40°
2026-04-29 22:22 51.54181 4.01005 7514 ft 253 kts 40°
2026-04-29 22:23 51.55608 4.02666 7255 ft 252 kts 40°
2026-04-29 22:23 51.57020 4.04310 7012 ft 251 kts 40°
2026-04-29 22:23 51.58436 4.05962 6736 ft 251 kts 41°
2026-04-29 22:23 51.59848 4.07609 6448 ft 251 kts 41°
2026-04-29 22:24 51.61259 4.09259 6172 ft 250 kts 41°
2026-04-29 22:24 51.62663 4.10899 5903 ft 249 kts 40°
2026-04-29 22:24 51.64064 4.12530 5638 ft 249 kts 40°
2026-04-29 22:24 51.65470 4.14174 5273 ft 253 kts 40°
2026-04-29 22:25 51.66895 4.15849 4945 ft 253 kts 40°
2026-04-29 22:25 51.68320 4.17520 4650 ft 253 kts 40°
2026-04-29 22:25 51.69721 4.19162 4416 ft 250 kts 41°
2026-04-29 22:25 51.71126 4.20810 4296 ft 243 kts 40°
2026-04-29 22:26 51.72457 4.22371 4208 ft 236 kts 41°
2026-04-29 22:26 51.73767 4.23910 4080 ft 230 kts 41°
2026-04-29 22:26 51.74912 4.25641 3811 ft 222 kts 63°
2026-04-29 22:26 51.75518 4.27876 3585 ft 215 kts 78°
2026-04-29 22:27 51.75706 4.30248 3327 ft 212 kts 88°
2026-04-29 22:27 51.75735 4.32644 3070 ft 210 kts 102°
2026-04-29 22:27 51.75202 4.34782 2834 ft 210 kts 120°
2026-04-29 22:27 51.74279 4.36608 2612 ft 213 kts 136°
2026-04-29 22:28 51.73008 4.37829 2489 ft 211 kts 150°
2026-04-29 22:28 51.71699 4.38791 2410 ft 203 kts 149°
2026-04-29 22:28 51.70395 4.39715 2349 ft 202 kts 156°
2026-04-29 22:28 51.68982 4.39872 2336 ft 214 kts 181°
2026-04-29 22:29 51.67987 4.39449 2331 ft 224 kts 196°
2026-04-29 22:29 51.66330 4.37289 2335 ft 244 kts 231°
2026-04-29 22:29 51.65735 4.34695 2327 ft 255 kts 262°
2026-04-29 22:29 51.65996 4.31898 2320 ft 258 kts 296°
2026-04-29 22:30 51.67104 4.29674 2343 ft 253 kts 328°
2026-04-29 22:30 51.68649 4.28273 2339 ft 252 kts 341°
2026-04-29 22:30 51.70250 4.27123 2334 ft 253 kts 342°
2026-04-29 22:30 51.71851 4.25975 2336 ft 250 kts 342°
2026-04-29 22:31 51.73423 4.24836 2331 ft 245 kts 342°
2026-04-29 22:31 51.74992 4.23881 2361 ft 235 kts 359°
2026-04-29 22:31 51.76516 4.24132 2407 ft 219 kts 28°
2026-04-29 22:31 51.77791 4.25376 2401 ft 212 kts 51°
2026-04-29 22:32 51.78618 4.27268 2414 ft 204 kts 73°
2026-04-29 22:32 51.78890 4.29477 2399 ft 200 kts 94°
2026-04-29 22:32 51.78595 4.31628 2394 ft 195 kts 114°
2026-04-29 22:32 51.77865 4.33445 2392 ft 193 kts 130°
2026-04-29 22:33 51.76787 4.34753 2399 ft 199 kts 149°
2026-04-29 22:33 51.75522 4.35691 2409 ft 202 kts 149°
2026-04-29 22:33 51.74242 4.36648 2418 ft 205 kts 149°
2026-04-29 22:33 51.72910 4.37527 2389 ft 210 kts 162°
2026-04-29 22:34 51.71421 4.37302 2408 ft 224 kts 193°
2026-04-29 22:34 51.70061 4.35994 2368 ft 235 kts 217°
2026-04-29 22:34 51.69129 4.33786 2362 ft 245 kts 246°
2026-04-29 22:34 51.68920 4.31056 2362 ft 253 kts 277°
2026-04-29 22:35 51.69573 4.28447 2372 ft 253 kts 313°
2026-04-29 22:35 51.70914 4.26659 2391 ft 250 kts 336°
2026-04-29 22:35 51.71962 4.25806 2391 ft 249 kts 341°
2026-04-29 22:35 51.73520 4.24672 2385 ft 248 kts 342°
2026-04-29 22:36 51.75094 4.23564 2388 ft 247 kts 341°
2026-04-29 22:36 51.76654 4.22437 2388 ft 243 kts 341°
2026-04-29 22:36 51.78167 4.21323 2374 ft 233 kts 341°
2026-04-29 22:36 51.79588 4.20276 2380 ft 218 kts 345°
2026-04-29 22:37 51.80998 4.19989 2367 ft 197 kts 17°
2026-04-29 22:37 51.82362 4.20282 2382 ft 198 kts 15°
2026-04-29 22:37 51.83722 4.20528 2395 ft 194 kts 15°
2026-04-29 22:37 51.85055 4.20770 2153 ft 191 kts 17°
2026-04-29 22:38 51.86304 4.21097 2000 ft 172 kts 35°
2026-04-29 22:38 51.87031 4.22335 2034 ft 149 kts 68°
2026-04-29 22:38 51.87602 4.23739 2011 ft 145 kts 65°
2026-04-29 22:38 51.88140 4.25047 2017 ft 134 kts 66°
2026-04-29 22:39 51.88635 4.26284 2008 ft 131 kts 66°
2026-04-29 22:39 51.89122 4.27505 1992 ft 127 kts 67°
2026-04-29 22:39 51.89594 4.28696 2002 ft 126 kts 66°
2026-04-29 22:39 51.90070 4.29898 1921 ft 127 kts 66°
2026-04-29 22:40 51.90550 4.31111 1761 ft 128 kts 66°
2026-04-29 22:40 51.91021 4.32292 1592 ft 124 kts 66°
2026-04-29 22:40 51.91492 4.33476 1415 ft 124 kts 66°
2026-04-29 22:40 51.91957 4.34649 1248 ft 123 kts 66°
2026-04-29 22:41 51.92417 4.35805 1082 ft 122 kts 66°
2026-04-29 22:41 51.92878 4.36967 922 ft 123 kts 64°
2026-04-29 22:41 51.93357 4.38171 760 ft 129 kts 62°
2026-04-29 22:41 51.93846 4.39401 582 ft 130 kts 60°
2026-04-29 22:42 51.94335 4.40625 396 ft 128 kts 61°
2026-04-29 22:42 51.94809 4.41812 215 ft 124 kts 60°
2026-04-29 22:42 51.95283 4.42997 47 ft 126 kts 60°
2026-04-29 22:42 51.95721 4.44110 0 ft 93 kts 57°
2026-04-29 22:43 51.95891 4.44536 -3 ft 20 kts 56°
2026-04-29 22:43 51.95903 4.44689 -1 ft 10 kts 127°
2026-04-29 22:43 51.95853 4.44741 0 ft 8 kts 150°
2026-04-29 22:43 51.95803 4.44770 0 ft 8 kts 178°
2026-04-29 22:44 51.95768 4.44714 0 ft 7 kts 240°
2026-04-29 22:44 51.95741 4.44643 0 ft 7 kts 235°
2026-04-29 22:44 51.95713 4.44577 0 ft 7 kts 236°
2026-04-29 22:44 51.95686 4.44510 0 ft 7 kts 237°
2026-04-29 22:45 51.95660 4.44444 0 ft 7 kts 237°
2026-04-29 22:45 51.95635 4.44380 0 ft 7 kts 237°
2026-04-29 22:45 51.95600 4.44293 0 ft 12 kts 237°
2026-04-29 22:45 51.95551 4.44172 0 ft 13 kts 237°
2026-04-29 22:46 51.95503 4.44053 0 ft 12 kts 237°
2026-04-29 22:46 51.95456 4.43937 0 ft 12 kts 237°
2026-04-29 22:46 51.95412 4.43823 0 ft 12 kts 237°
2026-04-29 22:46 51.95367 4.43713 0 ft 11 kts 237°
2026-04-29 22:47 51.95325 4.43606 0 ft 11 kts 238°
2026-04-29 22:47 51.95280 4.43511 0 ft 9 kts 205°
2026-04-29 22:47 51.95224 4.43534 0 ft 8 kts 148°
2026-04-29 22:47 51.95174 4.43507 0 ft 8 kts 229°
2026-04-29 22:48 51.95141 4.43431 0 ft 8 kts 236°
2026-04-29 22:48 51.95111 4.43357 0 ft 8 kts 237°
2026-04-29 22:48 51.95131 4.43305 1 ft 6 kts 328°
2026-04-29 22:48 51.95145 4.43291 0 ft 0 kts 325°
2026-04-29 22:49 51.95144 4.43292 0 ft 0 kts 326°
2026-04-29 22:49 51.95143 4.43293 0 ft 0 kts 326°